#timestamp,LO_Frequency,Hit,StdDev 
1599012015.4,286046998.4,N
1599012035.2,286047002.7,N
1599012055.1,286047000.2,N
1599012056.0,286047000.2,N
1599012075.8,286047000.9,N
1599012095.7,286047002.4,N
1599012115.5,286047000.7,N
1599012135.3,286046998.3,N
1599012155.2,286046998.9,N
1599012175.0,286046998.6,N
1599012175.9,286046998.6,N
1599012195.8,286047000.6,N
1599012215.6,286047000.7,N
1599012235.4,286046998.6,N
1599012255.3,286046998.4,N
1599012275.1,286047001.1,N
1599012295.8,286047001.1,N
1599012315.7,286047000.5,N
1599012335.5,286047000.2,N
1599012355.4,286046999.8,N
1599012375.2,286047002.5,N
1599012395.0,286047000.1,N
1599012395.9,286047000.1,N
1599012415.8,286047001.1,N
1599012435.6,286047001.0,N
1599012455.4,286046999.9,N
1599012475.3,286046999.8,N
1599012495.1,286046999.7,N
1599012515.9,286046999.7,N
1599012535.7,286047001.3,N
1599012555.5,286047002.6,N
1599012575.4,286047000.9,N
1599012595.2,286047000.6,N
1599012615.0,286047001.6,N
1599012615.9,286047001.6,N
1599012635.8,286047002.7,N
1599012655.6,286047002.8,N
1599012675.5,286047002.5,N
1599012695.3,286047002.7,N
1599012715.1,286047002.4,N
1599012735.9,286047001.6,N
1599012755.7,286047000.2,N
1599012775.5,286047002.2,N
1599012795.4,286047001.4,N
1599012815.2,286047001.8,N
1599012835.1,286047001.8,N
1599012836.0,286047001.8,N
1599012855.8,286047002.7,N
1599012875.6,286047001.8,N
1599012895.5,286047001.6,N
1599012915.3,286047004.0,Y
1599012935.2,286047001.6,P
1599012955.9,286047004.1,P
1599012975.7,286047003.2,N
1599013025.6,286047002.1,E
1599013035.5,286047000.6,N
1599013055.4,286046998.3,P
1599013075.2,286046998.3,N
1599013095.0,286046996.6,Y
1599013095.9,286046996.6,P
1599013115.8,286046999.9,N
1599013135.6,286047000.3,N
1599013155.4,286046998.3,N
1599013175.3,286046998.2,N
1599013195.1,286047000.9,N
1599013215.9,286046998.7,N
1599013235.7,286047000.8,N
1599013255.5,286047001.2,N
1599013275.4,286047000.4,N
1599013295.2,286046999.7,N
1599013315.0,286047002.7,N
1599013315.9,286047002.7,N
1599013335.8,286047001.7,N
1599013355.6,286047000.1,N
1599013375.5,286047000.1,N
1599013395.3,286046999.9,N
1599013415.1,286047001.7,N
1599013435.9,286047001.9,N
1599013455.2,286047002.3,N
1599013475.1,286047000.6,N
1599013476.0,286047000.6,N
1599013495.8,286047002.3,N
1599013515.7,286047001.2,N
1599013535.5,286047002.1,N
1599013555.3,286047000.7,N
1599013575.2,286046999.9,N
1599013595.0,286047002.6,N
1599013595.9,286047002.6,N
1599013615.7,286047000.2,N
1599013635.6,286047000.0,N
1599013655.4,286047001.2,N
1599013675.3,286047000.3,N
1599013695.1,286047000.3,N
1599013696.0,286047000.3,N
1599013715.8,286047000.7,N
1599013735.7,286047000.2,N
1599013755.5,286047002.8,N
1599013775.3,286047002.0,N
1599013795.2,286047000.2,N
1599013815.0,286046999.8,N
1599013815.9,286046999.8,N
1599013835.8,286047002.0,N
1599013855.6,286047004.1,Y
1599013875.4,286047002.4,P
1599013895.3,286047001.2,N
1599013915.1,286046998.3,N
1599013935.9,286047000.8,N
1599013955.7,286047002.7,N
1599013975.5,286047000.2,N
1599013995.4,286047000.4,N
1599014015.2,286047002.6,N
1599014035.0,286047002.0,N
1599014035.9,286047002.0,N
1599014055.8,286047001.1,N
1599014075.6,286047000.8,N
1599014095.5,286047000.8,N
1599014115.3,286046999.5,N
1599014135.1,286046998.6,N
1599014155.9,286046999.7,N
1599014175.7,286047000.6,N
1599014195.5,286046999.7,N
1599014215.4,286047000.9,N
1599014235.2,286047002.6,N
1599014255.1,286047001.4,N
1599014256.0,286047001.4,N
1599014275.8,286047002.1,N
1599014295.6,286047002.2,N
1599014315.5,286047004.0,Y
1599014335.3,286047002.3,P
1599014355.1,286046999.8,N
1599014375.9,286047002.3,N
1599014395.7,286047002.2,N
1599014415.6,286047001.5,N
1599014435.4,286047001.3,N
1599014455.2,286047002.2,N
1599014475.1,286047002.0,N
1599014476.0,286047002.0,N
1599014495.8,286047001.9,N
1599014515.6,286047001.5,N
1599014535.5,286047002.5,Y
1599014555.3,286047000.7,P
1599014575.2,286046998.1,P
1599014595.9,286046998.4,N
1599014615.7,286046999.1,N
1599014635.6,286046996.7,N
1599014655.4,286047001.1,N
1599014675.2,286046998.5,N
1599014695.1,286046998.2,N
1599014696.0,286046998.2,N
1599014715.8,286046998.4,N
1599014735.7,286046996.8,N
1599014755.5,286046996.9,N
1599014775.3,286046997.7,N
1599014795.2,286046996.5,N
1599014815.0,286046998.3,N
1599014815.9,286046998.3,N
1599014835.8,286046998.2,N
1599014855.6,286047001.1,N
1599014875.4,286047001.0,N
1599014895.3,286047000.6,N
1599014915.1,286046998.6,N
1599014935.8,286046999.3,N
1599014955.7,286046998.4,N
1599014975.5,286046999.4,N
1599014995.4,286046996.5,N
1599015015.2,286046998.2,N
1599015035.0,286047001.0,N
1599015035.9,286047001.0,N
1599015055.8,286046999.1,N
1599015075.6,286046999.2,N
1599015095.4,286046997.4,N
1599015115.3,286046997.1,N
1599015135.1,286046995.3,Y
1599015155.9,286046997.1,P
1599015175.7,286046997.4,P
1599015195.5,286046997.8,P
1599015215.4,286046997.2,Y
1599015235.2,286047000.8,P
1599015255.1,286047000.8,N
1599015256.0,286047000.8,N
1599015275.8,286047000.6,N
1599015295.6,286047001.1,N
1599015315.5,286047002.7,N
1599015335.3,286047000.1,N
1599015355.1,286046998.5,N
1599015375.9,286047000.8,N
1599015395.7,286046998.6,N
1599015415.6,286047000.3,N
1599015435.4,286046998.6,N
1599015455.2,286047000.9,N
1599015475.1,286047000.4,N
1599015476.0,286047000.4,N
1599015495.8,286046999.9,N
1599015515.7,286047000.0,N
1599015535.5,286046999.8,N
1599015555.3,286046998.6,N
1599015575.2,286046998.9,N
1599015595.0,286046998.2,N
1599015595.9,286046998.2,N
